Date String (YYYY-MM-DD hh:mm:ss) UTC,Instrument flags,Ambient pressure (hPa),Sample flow (lpm),Bypass flow (lpm),Sample temperature (°C),Ambient temperature (°C),ASC tube jacket temperature (°C),LED temperature (°C),Box temperature (°C),Sample RH (%),Span deviation,Mass concentration (μg/m³),Mass concentration (μg/m³),Mass concentration (μg/m³)
DateTimeUTC,F1_M11,P_M11,Q1_M11,Q2_M11,T1_M11,T2_M11,T3_M11,T4_M11,T5_M11,U1_M11,ZSPAN_M11,X0_M11,X2_M11,X1_M11
2022-10-14 02:00:00,,0827.9,5.00,0.00,29.9,28.3,00.0,38.7,31.7,13.0,0000.0,0024.93,0008.29,0007.09
2022-10-14 02:01:00,,0827.9,5.01,0.00,29.9,28.3,00.0,38.7,31.6,13.1,0000.0,0025.23,0008.28,0007.06
2022-10-14 02:02:00,,0828.0,5.00,0.00,29.9,28.2,00.0,38.7,31.6,13.2,0000.0,0026.18,0008.20,0007.00
2022-10-14 02:03:00,,0828.0,5.00,0.00,29.9,28.3,00.0,38.7,31.7,13.2,0000.0,0026.29,0008.09,0006.93
2022-10-14 02:04:00,,0828.0,4.99,0.00,29.8,28.3,00.0,38.7,31.7,13.2,0000.0,0025.38,0007.96,0006.84
2022-10-14 02:05:00,,0828.0,5.01,0.00,29.8,28.3,00.0,38.7,31.6,13.2,0000.0,0023.12,0007.80,0006.73
2022-10-14 02:06:00,,0827.9,5.00,0.00,29.8,28.3,00.0,38.7,31.6,13.1,0000.0,0022.48,0007.72,0006.63
2022-10-14 02:07:00,,0827.9,5.00,0.00,29.8,28.3,00.0,38.7,31.6,13.1,0000.0,0022.94,0007.72,0006.59
2022-10-14 02:08:00,,0828.0,5.00,0.00,29.9,28.3,00.0,38.7,31.7,13.1,0000.0,0021.46,0007.52,0006.50
2022-10-14 02:09:00,,0828.0,5.00,0.00,29.8,28.3,00.0,38.7,31.6,13.2,0000.0,0019.99,0007.40,0006.40
2022-10-14 02:10:00,,0828.0,5.00,0.00,29.9,28.3,00.0,38.7,31.7,13.2,0000.0,0019.95,0007.36,0006.36
2022-10-14 02:11:00,,0828.0,5.00,0.00,29.9,28.3,00.0,38.7,31.7,13.1,0000.0,0019.60,0007.30,0006.33
2022-10-14 02:12:00,,0827.9,5.00,0.00,29.9,28.3,00.0,38.7,31.7,13.1,0000.0,0017.78,0007.26,0006.32
2022-10-14 02:13:00,,0828.0,5.00,0.00,29.9,28.3,00.0,38.7,31.7,13.1,0000.0,0016.46,0007.26,0006.34
2022-10-14 02:14:00,,0828.0,5.00,0.00,29.9,28.3,00.0,38.7,31.6,13.0,0000.0,0016.43,0007.29,0006.37
2022-10-14 02:15:00,,0828.0,5.00,0.00,29.9,28.3,00.0,38.7,31.6,13.0,0000.0,0017.06,0007.31,0006.37
2022-10-14 02:16:00,,0827.9,5.00,0.00,29.9,28.3,00.0,38.7,31.7,13.1,0000.0,0017.00,0007.30,0006.38
2022-10-14 02:17:00,,0827.9,5.00,0.00,29.9,28.3,00.0,38.7,31.7,13.1,0000.0,0017.58,0007.33,0006.39
2022-10-14 02:18:00,,0828.0,5.00,0.00,29.8,28.3,00.0,38.7,31.6,13.1,0000.0,0017.03,0007.28,0006.37
2022-10-14 02:19:00,,0828.0,5.00,0.00,29.8,28.3,00.0,38.7,31.6,13.0,0000.0,0016.99,0007.34,0006.36
2022-10-14 02:20:00,,0827.9,5.00,0.00,29.8,28.3,00.0,38.7,31.6,13.0,0000.4,0016.37,0007.29,0006.34
2022-10-14 02:21:00,,0827.9,5.00,0.00,29.8,28.3,00.0,38.7,31.7,13.0,0002.3,0015.30,0007.24,0006.32
2022-10-14 02:22:00,,0828.0,5.00,0.00,29.8,28.3,00.0,38.7,31.6,13.0,0000.1,0014.83,0007.21,0006.27
2022-10-14 02:23:00,,0828.0,5.00,0.00,29.8,28.3,00.0,38.7,31.6,13.0,0000.0,0015.24,0007.14,0006.19
2022-10-14 02:24:00,,0828.0,5.00,0.00,29.8,28.3,00.0,38.7,31.7,13.0,0000.0,0015.60,0007.07,0006.11
2022-10-14 02:25:00,,0828.0,5.00,0.00,29.8,28.3,00.0,38.7,31.7,13.0,0000.0,0015.74,0006.99,0006.03
2022-10-14 02:26:00,,0828.0,5.01,0.00,29.8,28.3,00.0,38.7,31.6,13.0,0000.0,0015.73,0006.94,0006.00
2022-10-14 02:27:00,,0827.9,5.00,0.00,29.8,28.3,00.0,38.7,31.7,13.0,0000.0,0015.96,0006.92,0005.99
2022-10-14 02:28:00,,0827.9,5.00,0.00,29.8,28.3,00.0,38.7,31.7,12.9,0000.0,0015.53,0006.89,0005.97
2022-10-14 02:29:00,,0828.0,5.00,0.00,29.8,28.3,00.0,38.7,31.6,12.9,0000.0,0014.96,0006.85,0005.95
2022-10-14 02:30:00,,0828.0,5.00,0.00,29.8,28.3,00.0,38.7,31.6,12.8,0000.0,0014.70,0006.79,0005.93
2022-10-14 02:31:00,,0828.0,5.00,0.00,29.8,28.3,00.0,38.7,31.6,12.8,0000.0,0014.88,0006.83,0005.93
2022-10-14 02:32:00,,0828.0,4.99,0.00,29.8,28.3,00.0,38.7,31.7,12.8,0000.0,0014.69,0006.80,0005.92
2022-10-14 02:33:00,,0827.9,5.00,0.00,29.8,28.2,00.0,38.7,31.7,12.9,0000.0,0014.39,0006.76,0005.89
2022-10-14 02:34:00,,0827.9,5.00,0.00,29.8,28.2,00.0,38.7,31.6,12.8,0000.0,0013.98,0006.76,0005.88
2022-10-14 02:35:00,,0827.9,5.00,0.00,29.8,28.2,00.0,38.7,31.6,12.8,0000.0,0013.82,0006.76,0005.86
2022-10-14 02:36:00,,0827.9,5.00,0.00,29.8,28.2,00.0,38.7,31.6,12.7,0000.0,0013.66,0006.76,0005.85
2022-10-14 02:37:00,,0828.0,5.00,0.00,29.8,28.3,00.0,38.7,31.7,12.7,0000.0,0013.11,0006.75,0005.84
2022-10-14 02:38:00,,0827.9,5.00,0.00,29.8,28.2,00.0,38.7,31.6,12.7,0000.0,0013.72,0006.73,0005.82
2022-10-14 02:39:00,,0827.9,4.99,0.00,29.8,28.2,00.0,38.7,31.6,12.7,0000.0,0015.08,0006.73,0005.80
2022-10-14 02:40:00,,0827.9,5.00,0.00,29.8,28.2,00.0,38.7,31.6,12.7,0000.0,0015.21,0006.71,0005.79
2022-10-14 02:41:00,,0827.9,5.00,0.00,29.8,28.2,00.0,38.7,31.6,12.5,0000.0,0015.12,0006.67,0005.77
2022-10-14 02:42:00,,0828.0,5.02,0.00,29.8,28.2,00.0,38.7,31.6,12.4,0000.0,0015.42,0006.58,0005.73
2022-10-14 02:43:00,,0828.0,5.00,0.00,29.8,28.2,00.0,38.7,31.6,12.4,0000.0,0015.78,0006.57,0005.71
2022-10-14 02:44:00,,0827.9,4.99,0.00,29.8,28.2,00.0,38.7,31.6,12.5,0000.0,0015.55,0006.56,0005.69
2022-10-14 02:45:00,,0827.9,5.00,0.00,29.8,28.2,00.0,38.7,31.6,12.6,0000.0,0015.19,0006.53,0005.68
2022-10-14 02:46:00,,0827.8,5.00,0.00,29.8,28.2,00.0,38.7,31.6,12.6,0000.0,0015.02,0006.55,0005.69
2022-10-14 02:47:00,,0827.9,5.00,0.00,29.8,28.2,00.0,38.7,31.6,12.6,0000.0,0014.80,0006.57,0005.70
2022-10-14 02:48:00,,0827.9,5.00,0.00,29.8,28.2,00.0,38.7,31.6,12.5,0000.0,0014.35,0006.57,0005.69
2022-10-14 02:49:00,,0828.0,5.00,0.00,29.8,28.2,00.0,38.7,31.6,12.5,0000.0,0013.83,0006.55,0005.68
2022-10-14 02:50:00,,0827.9,4.99,0.00,29.8,28.1,00.0,38.7,31.5,12.5,0000.0,0013.12,0006.51,0005.68
2022-10-14 02:51:00,,0827.9,4.99,0.00,29.8,28.1,00.0,38.7,31.5,12.6,0000.0,0013.28,0006.48,0005.67
2022-10-14 02:52:00,,0827.9,4.99,0.00,29.8,28.1,00.0,38.6,31.5,12.5,0000.0,0014.23,0006.47,0005.65
2022-10-14 02:53:00,,0827.9,5.00,0.00,29.8,28.1,00.0,38.6,31.5,12.3,0000.0,0013.97,0006.47,0005.65
2022-10-14 02:54:00,,0827.9,5.01,0.00,29.8,28.1,00.0,38.6,31.5,12.3,0000.0,0013.59,0006.47,0005.65
2022-10-14 02:55:00,,0827.9,4.99,0.00,29.7,28.1,00.0,38.6,31.5,12.3,0000.0,0013.72,0006.46,0005.64
2022-10-14 02:56:00,,0827.9,5.00,0.00,29.7,28.1,00.0,38.6,31.5,12.3,0000.0,0013.94,0006.44,0005.63
2022-10-14 02:57:00,,0827.9,4.99,0.00,29.7,28.1,00.0,38.6,31.4,12.4,0000.0,0013.96,0006.35,0005.61
2022-10-14 02:58:00,,0827.9,5.00,0.00,29.7,28.1,00.0,38.6,31.4,12.4,0000.0,0013.72,0006.27,0005.57
2022-10-14 02:59:00,,0827.9,5.00,0.00,29.7,28.0,00.0,38.6,31.5,12.3,0000.0,0013.66,0006.23,0005.55
